Starlink 32815

operational
NORAD ID: 62956 Int'l Des: 2025-029 Owner: SPXS Country: US Constellation: starlink
LEOCIRCULAR

About Starlink 32815

Description loading...

Live Position

Loading 3D Globe...

Upcoming Passes

Altitude History

Altitude vs Time

uPlot chart will show altitude changes over time

Two-Line Element Set

1 62956U 25029J 25260.17303084 .00038975 00000-0 13219-2 0 9997
2 62956 53.1575 316.1396 0001245 103.8861 256.2278 15.30181702 34797
Epoch: Sep 17, 2025 • Age: 23 hours

Current Status

Altitude 475.1 km
Velocity 7.63 km/s
Sub-Earth Point 22.22°N, 75.38°E
Launch Date Feb 11, 2025
Age 0.5 years
Type internet

Technical Details

Classification Payload
Mass 730.00 kg
Dry Mass 700.00 kg
Total Mass 730.00 kg
Length 0.30 m
Diameter 4.10 m
Span 29.00 m
Shape Box + pan
Manufacturer SPXS
Bus Type Starlink V2M
Phase Status In Orbit
Owner/State SPXS/US

Large Constellations

Loading constellations...